Regional Weather Roundup
Issued by NWS

Home | Current Version | Previous Version | Graphics & Text | Print | Product List | Glossary On
Versions: 1 2 3 4 5 6 7 8 9 10 11 12 13 14 15 16 17 18 19 20 21 22 23 24 25 26 27 28 29 30 31 32 33 34 35 36 37 38 39 40 41 42 43 44 45 46 47 48 49 50
000
ASUS43 KLSX 052207
RWRMO

WEATHER SUMMARY FOR MISSOURI
NATIONAL WEATHER SERVICE SPRINGFIELD MO
500 PM CDT SUN JUL 05 2015

NOTE: "FAIR" INDICATES FEW OR NO CLOUDS BELOW 12,000 FEET WITH NO
       SIGNIFICANT WEATHER AND/OR OBSTRUCTIONS TO VISIBILITY.
       CURRENT SKY AND/OR WEATHER CONDITIONS ARE NOT AVAILABLE FOR
       CHILLICOTHE AND FARMINGTON.

MOZ001>031-035>038-043-044-053-054-052300-
...NORTHERN AND WESTERN MISSOURI...

CITY           SKY/WX    TMP DP  RH WIND       PRES   REMARKS
KANSAS CTY INT PTSUNNY   88  75  65 SE15      29.91F HX  97
KANSAS C DTWN  MOSUNNY   89  74  60 S12       29.90F HX  98
LEE`S SUMMIT   MOSUNNY   88  73  61 S10G17    29.92F HX  95
ST JOSEPH      MOSUNNY   89  75  63 S15       29.88F HX  99
CHILLICOTHE      N/A     89  72  56 S10       29.94S HX  96
KIRKSVILLE     PTSUNNY   85  69  58 S13       29.98F

$$
MOZ066>068-077>081-088>096-101>105-052300-
...SOUTHWEST MISSOURI...

CITY           SKY/WX    TMP DP  RH WIND       PRES   REMARKS
SPRINGFIELD    PTSUNNY   81  70  69 SE24      29.98F THUNDER
JOPLIN         MOSUNNY   89  75  63 S8        29.94F HX  99

$$
MOZ032>034-039>042-045>050-055>058-069>072-052300-
...CENTRAL MISSOURI...

CITY           SKY/WX    TMP DP  RH WIND       PRES   REMARKS
COLUMBIA       PTSUNNY   86  71  60 SE8       29.99F HX  91
JEFFERSON CITY PTSUNNY   85  69  58 S9        29.97F
ROLLA          MOSUNNY   84  69  60 S8        30.00F
SEDALIA        MOSUNNY   88  73  61 SE9       29.97F HX  95
WHITEMAN AFB   SUNNY     88  75  65 S9        29.93F HX  97
WARRENSBURG    SUNNY     86  73  66 SE9       29.93F HX  93
OSAGE BEACH    MOSUNNY   86  70  58 SE7       29.99F HX  90

$$
MOZ051-052-059>065-052300-
...EAST CENTRAL MISSOURI...

CITY           SKY/WX    TMP DP  RH WIND       PRES   REMARKS
ST LOUIS INTL  MOSUNNY   88  64  44 S9        30.01F
SPIRIT OF STL  MOSUNNY   85  69  58 VRB7      30.00F
ST CHARLES     SUNNY     86  67  52 S10       29.99F

$$
MOZ072>076-082>087-097>100-106>115-052300-
...SOUTH CENTRAL AND SOUTHEAST MISSOURI...

CITY           SKY/WX    TMP DP  RH WIND       PRES   REMARKS
CAPE GIRARDEAU MOSUNNY   84  68  58 SE7       30.03F
FARMINGTON     PTSUNNY   82  70  65 S8        30.07F
POPLAR BLUFF   PTSUNNY   85  71  63 SE7       30.01S HX  90
WEST PLAINS    PTSUNNY   84  71  65 S9        30.05F

$$



USA.gov is the U.S. government's official web portal to all federal, state and local government web resources and services.